Location: Choisy
(48.7685°N, 2.4187°E)
Time: 10:47:27
(UTC+00:00)

ATLAS 3B R/B - Pass Details

Date: 06 December 2023
Orbit: 947 x 1247 km, 63.8° (Epoch: 10 February)

Event Time Altitude Azimuth Distance (km) Brightness Sun altitude
Exits shadow 05:58:45 18° 292° (WNW) 2,483 4.0 -13.9°
Maximum altitude 06:02:59 31° 341° (NNW) 1,958 3.8 -13.3°
Drops below altitude 10° 06:09:40 10° 41° (NE) 3,191 5.5 -12.2°
Sets 06:12:56 0° 52° (NE) 4,180 6.2 -11.7°
